Погода в Вологде

Россия / Вологодская область     59°13′13″N   39°53′29″E
темп.,
°C
ветер,
м/с
пор.,
м/с
влажн.,
%
обл.,
%
осадки,
мм/ч
давл.,
гПа
погр.,
м
23 мая, пн
пн2300:00−1ссз378519 0.0 1007131
03:00−1ссз41082100 0.0 1006331
06:00+1ссз6969100 0.0 1004680
09:00+4ссз7954100 0.0 10021139
12:00+4ссз7951100 0.0 10021331
15:00+3ссз71276100 0.2 10031158
18:00+3ссз71483100 0.7 10021290
21:00+1сз71397100 1.8 1002853
24 мая, вт
вт2400:00+1с4998100 0.7 1002711
03:000ссз3899100 1.3 1003454
06:00+1ссз4898100 0.9 1004472
09:00+3с568599 1.4 1005930
12:00+4с5679100 0.3 10071028
15:00+5с5676100 0.4 10091060
18:00+5ссз467670 0.1 1010969
21:00+3ссз4989100 0.2 1012329
25 мая, ср
ср2500:00+2ссз4992100 0.0 1013335
03:00+2ссз3796100 0.0 1014335
06:00+2ссз3691100 0.0 1014516
09:00+5ссз4578100 0.0 1014835
12:00+7сз4570100 0.1 10141131
15:00+10сз456377 0.4 10131336
18:00+9сз4567100 0.1 10131055
21:00+5зсз228099 0.1 101319
26 мая, чт
чт2600:00+4з3583100 0.0 101289
03:00+4сз228698 0.0 101150
06:00+4зюз1190100 0.1 101060
09:00+5в118697 0.2 1008272
12:00+9вюв1270100 0.1 1007776
15:00+12ссв235464 0.2 10041380
18:00+12св326142 0.0 1002677
21:00+6в369267 0.0 100099
27 мая, пт
пт2700:00+4всв3795100 0.0 999137
03:00+5св2493100 0.0 997127
06:00+5св3695100 1.1 996165
09:00+6всв2297100 3.6 997114
12:00+7зсз2294100 0.4 998215
15:00+11зюз238085 0.4 998656
18:00+12ююз237765 0.0 998470
21:00+10юз3590100 0.3 998108